GFSNE_sfc_rhum_198.txt.gz
RH
91 92 87 83 82 73 69 66 74 96 96 92 93 81 87 80 75 76 78 70 71 69 68 66 66 66 65 66 66 66 67 67 67 66 65 65 65 65
89 91 89 88 84 82 75 66 66 77 90 89 93 91 88 83 82 84 81 76 75 72 68 67 66 66 66 66 66 66 66 66 67 66 66 65 65 66
88 89 88 86 87 86 81 69 73 73 87 92 92 93 96 97 96 86 84 87 84 72 68 68 67 66 66 66 66 65 64 65 66 67 66 66 66 66
90 90 88 87 90 87 88 84 81 80 87 97 97 97 97 97 93 92 86 77 80 69 68 68 67 66 66 66 65 65 64 63 64 65 65 66 66 66
89 90 89 92 94 93 89 91 92 86 89 94 97 96 97 98 96 90 85 84 70 72 72 69 67 66 65 65 64 64 64 64 64 65 64 65 65 65
91 89 89 91 92 92 92 92 91 92 91 93 96 98 97 98 92 92 89 87 82 66 68 71 69 67 65 65 64 63 62 64 64 63 65 63 65 65
96 94 93 92 91 90 91 92 93 94 95 96 98 98 98 98 97 93 88 87 85 83 78 80 80 81 74 66 63 62 62 63 63 64 64 64 66 65
98 97 97 96 96 95 94 90 89 93 95 96 97 97 97 94 97 93 92 88 86 89 88 85 80 81 74 75 63 62 61 62 62 62 65 64 70 67
97 98 97 96 95 97 98 96 93 88 84 87 93 90 93 88 86 90 86 77 82 88 79 92 90 92 82 66 66 63 62 61 61 59 64 64 70 67
100 99 98 98 98 97 98 98 97 96 95 91 86 91 85 83 78 74 77 78 94 84 78 95 97 97 86 84 67 64 62 62 61 59 60 62 67 66
100 100 100 100 98 94 100 100 100 100 97 93 91 88 84 81 77 77 87 80 97 97 98 97 99 99 98 98 92 67 65 63 64 62 57 64 66 70
99 100 98 99 96 95 99 98 98 99 100 100 98 92 89 87 80 79 82 81 98 97 94 98 99 98 100 98 97 98 96 70 64 60 57 65 67 80
98 99 100 98 96 94 92 97 95 97 97 97 98 98 98 96 96 93 87 84 96 98 96 95 98 99 98 99 99 97 98 96 96 92 68 60 68 73
98 99 99 98 97 96 96 96 95 96 96 96 96 98 98 99 100 98 97 96 97 93 94 93 97 95 98 100 99 99 98 98 97 95 96 81 73 68
99 99 99 100 98 98 97 96 95 94 95 95 96 100 100 99 96 95 94 94 95 95 95 95 93 97 97 98 99 99 97 96 95 95 96 96 94 96
98 98 98 98 97 97 96 92 93 92 91 94 97 98 97 97 95 91 90 89 92 96 82 91 91 92 97 97 95 97 96 96 96 96 92 93 97 94
97 96 96 96 96 96 96 95 93 89 90 94 94 96 93 88 88 87 81 82 88 93 97 91 85 82 90 89 91 94 92 93 94 84 80 90 96 92
92 95 97 97 97 96 96 98 96 96 94 92 92 91 90 88 87 89 81 96 82 78 87 91 92 87 78 76 75 93 95 92 93 84 82 90 98 98
93 95 97 96 96 94 96 95 99 98 95 94 90 94 93 89 87 87 88 90 89 82 83 76 80 89 90 94 90 68 90 92 89 90 84 85 94 95
93 95 95 95 92 91 92 96 97 97 97 97 97 96 94 92 93 90 90 92 88 86 86 77 72 74 86 90 94 87 63 87 86 91 92 86 83 70
97 98 97 96 97 95 96 97 97 98 97 98 96 94 94 91 94 93 90 90 90 75 85 89 76 76 81 82 94 92 88 59 68 77 80 84 91 93
98 98 98 98 97 98 98 97 98 97 98 98 98 97 97 96 97 97 97 96 96 96 94 68 69 72 70 76 84 92 86 82 57 57 56 59 83 86
99 99 99 98 98 98 98 99 98 98 98 98 98 99 98 98 98 98 97 97 96 96 80 70 62 64 66 68 79 91 93 87 77 79 81 58 57 50

GFSNE_sfc_rhum_201.txt.gz
RH
92 93 91 89 91 90 89 88 85 97 98 99 96 83 86 83 81 84 82 78 76 75 75 72 67 67 67 66 65 65 66 66 65 65 65 65 66 64
87 91 93 89 87 91 92 90 88 84 94 95 95 90 87 83 81 85 82 79 78 77 77 74 71 69 68 68 66 66 66 66 66 66 66 65 65 66
87 83 92 91 93 95 90 89 88 89 91 98 95 93 93 92 89 87 85 90 86 80 79 76 72 70 69 68 67 66 66 65 66 66 66 65 65 65
86 84 84 90 90 91 91 90 88 90 90 98 98 97 95 93 94 94 91 85 88 80 78 74 72 70 69 68 67 66 65 64 64 64 65 65 65 65
82 82 82 90 94 93 91 90 89 89 89 93 98 98 98 98 98 97 96 94 84 79 74 72 70 70 69 68 67 66 65 64 66 65 64 65 65 64
92 89 82 80 92 92 91 91 90 93 93 95 98 98 98 99 93 96 98 93 87 69 72 76 73 71 70 69 67 65 65 63 64 64 64 65 65 64
91 91 91 84 89 87 89 92 91 94 97 97 98 98 98 98 97 97 93 94 93 88 88 88 83 79 75 68 66 65 64 62 63 63 64 65 65 65
99 94 91 90 94 94 88 86 86 95 97 97 97 96 97 96 98 96 92 95 97 93 94 95 83 81 75 72 65 64 63 62 62 64 65 68 70 68
99 99 99 97 95 94 95 92 91 88 86 92 96 91 96 98 96 97 87 78 84 93 88 95 86 89 76 65 66 64 64 63 60 62 66 67 68 66
100 100 97 97 95 95 95 96 96 94 94 90 88 92 88 93 85 81 82 76 88 85 82 92 94 98 81 80 68 65 64 64 62 60 62 65 66 63
100 100 100 100 97 93 100 100 100 100 98 92 91 90 89 91 93 93 93 75 94 95 95 97 98 99 96 97 92 67 65 65 64 62 61 65 66 66
99 100 99 99 97 94 99 100 100 100 100 100 100 98 97 97 86 80 78 78 93 98 92 98 98 96 99 98 98 98 94 67 66 67 59 68 67 77
99 99 100 98 98 97 96 99 100 100 100 100 99 99 100 99 93 90 84 80 87 97 94 95 98 99 98 98 98 96 98 97 97 91 64 68 69 73
99 99 100 98 98 98 96 99 98 98 98 98 98 99 99 99 99 93 95 92 95 91 91 92 97 95 100 97 100 100 98 98 96 97 97 79 71 72
98 99 98 100 99 98 99 98 98 98 98 97 98 98 98 98 96 95 95 94 95 94 93 93 90 96 95 98 99 100 97 97 98 96 97 97 97 97
97 97 97 96 96 96 97 97 98 98 97 97 97 98 95 94 94 92 94 93 94 95 86 91 90 88 97 98 96 98 97 98 98 98 96 97 98 98
97 95 95 95 96 96 96 96 97 97 96 96 97 96 94 91 89 87 88 88 96 97 98 94 86 85 91 90 94 94 96 96 95 94 89 96 98 94
95 97 97 97 96 97 96 96 96 95 95 93 94 92 93 92 90 86 82 85 92 91 91 96 88 88 82 78 74 92 95 89 94 87 88 92 98 98
94 96 97 97 97 95 95 95 98 97 90 90 91 91 89 87 88 87 87 79 81 80 84 85 83 89 90 95 94 69 89 91 89 91 90 88 96 97
96 96 97 96 95 96 96 97 98 97 95 94 95 93 92 88 89 88 89 94 82 78 75 69 77 73 88 90 96 94 63 86 88 89 88 83 82 75
97 96 97 96 96 94 98 97 97 98 97 97 97 95 95 91 93 93 94 96 91 84 86 78 66 82 85 81 92 90 88 60 69 80 80 81 87 94
98 97 98 96 97 96 98 98 97 97 98 98 98 97 96 94 95 95 95 95 97 95 94 95 96 94 95 95 93 95 87 85 62 62 58 61 84 91
98 98 98 98 98 98 97 98 97 97 97 97 98 97 97 97 97 97 97 97 96 97 95 94 94 95 94 95 95 96 95 95 86 81 82 56 53 50

GFSNE_sfc_rhum_207.txt.gz
RH
88 85 80 75 76 71 71 74 86 89 97 97 98 95 95 96 96 94 94 94 94 92 88 84 81 76 74 72 67 66 65 65 64 65 63 63 63 60
86 85 80 76 77 78 78 73 78 86 90 76 91 93 96 96 95 95 94 95 93 88 86 84 81 80 76 74 70 68 67 66 65 65 64 64 64 62
84 84 83 80 81 79 81 74 78 80 87 93 77 86 95 97 98 95 93 93 94 90 90 86 83 82 78 76 74 71 69 68 66 66 64 64 65 65
86 86 86 83 88 89 88 83 80 81 86 90 91 96 94 93 96 96 96 92 93 91 91 89 86 84 80 79 78 75 72 70 69 67 66 65 65 66
93 93 90 88 93 94 91 90 91 83 84 88 98 94 94 95 100 97 97 96 92 91 91 89 88 85 81 78 75 73 72 71 70 69 68 67 66 66
90 91 89 90 91 93 94 93 90 92 87 94 94 98 99 100 97 98 100 98 98 92 91 93 89 83 79 76 74 72 71 71 70 70 70 69 68 65
96 95 96 97 97 96 96 96 94 93 94 96 99 99 100 99 98 98 96 98 100 97 97 97 90 86 77 75 73 70 72 70 70 70 69 69 67 65
97 96 96 97 96 95 94 94 92 95 93 94 96 98 100 98 96 97 97 98 97 99 98 98 90 85 81 70 70 71 70 70 70 70 71 70 66 64
97 97 96 88 93 93 93 95 94 91 96 83 94 94 98 97 96 99 95 89 84 97 91 96 94 93 85 70 74 70 71 70 70 71 72 69 64 64
100 98 98 97 96 97 97 96 95 93 95 82 86 89 86 87 88 87 96 99 97 96 89 94 95 94 78 73 74 70 68 69 73 73 70 66 66 64
100 100 100 100 96 99 100 100 100 100 93 90 84 82 81 87 94 98 98 93 96 98 99 92 96 96 93 95 81 70 68 68 69 69 68 66 64 64
100 100 98 99 96 94 98 99 99 100 98 99 99 100 100 100 99 85 89 90 92 97 98 93 96 94 96 95 92 84 77 69 69 69 69 67 59 43
98 98 99 98 97 96 98 98 98 99 99 98 98 99 100 100 100 100 96 88 89 92 96 93 95 94 85 92 94 93 89 88 82 81 70 68 61 54
96 98 99 98 100 100 98 98 99 98 100 100 100 98 98 99 100 100 100 100 100 95 98 93 94 88 89 89 92 93 93 90 84 84 88 74 68 66
97 98 96 93 96 98 98 99 98 99 99 98 98 100 100 99 100 100 100 100 100 99 99 100 88 97 88 86 88 89 94 88 84 85 84 87 80 78
98 99 98 97 94 94 96 97 98 99 98 95 95 96 97 97 96 94 94 96 92 95 73 78 82 82 83 80 78 89 82 87 82 78 73 73 76 75
96 92 91 92 92 93 93 94 95 96 95 97 94 95 95 93 94 95 88 84 87 88 86 77 69 68 77 84 83 84 84 79 73 69 64 70 70 69
85 92 95 96 93 92 92 92 93 94 94 94 96 94 94 94 94 94 92 89 88 82 81 79 76 74 70 71 71 79 77 74 69 66 61 68 68 68
88 90 95 94 94 92 91 90 92 93 95 92 92 94 93 93 93 92 93 91 89 77 74 71 71 76 80 85 72 68 74 72 72 71 64 63 66 67
76 80 83 84 84 87 90 91 92 93 93 92 93 94 95 91 92 90 84 84 79 76 77 70 66 65 73 83 85 78 67 74 74 73 68 61 65 78
77 81 81 78 77 74 83 86 92 94 95 95 94 94 97 88 90 88 87 89 85 77 77 70 59 67 60 63 86 82 71 66 62 65 66 68 68 62
76 73 76 79 84 86 91 93 87 85 84 84 91 92 92 84 84 80 81 79 68 69 64 62 54 50 56 54 73 85 73 68 68 71 72 68 75 82
88 80 81 84 87 88 82 89 87 88 85 84 83 82 86 78 72 75 75 69 62 62 59 62 61 63 70 78 84 88 91 90 80 80 68 54 53 56

GFSNE_sfc_rhum_210.txt.gz
RH
83 79 80 67 62 62 67 67 75 83 75 62 81 81 86 90 92 95 93 94 96 95 94 92 89 86 82 78 74 72 67 65 66 64 65 65 63 64
70 78 79 78 78 69 73 68 68 74 81 53 67 71 84 86 87 94 94 94 96 96 94 94 92 90 88 84 81 75 73 69 67 65 65 62 62 61
74 79 78 75 79 78 76 79 76 76 84 72 70 74 91 91 92 92 97 98 98 97 95 95 94 92 91 89 86 80 76 72 68 65 65 64 63 62
85 87 86 82 86 86 89 88 86 84 83 80 75 91 92 90 94 96 98 96 96 97 96 95 94 93 92 90 89 85 80 76 74 70 68 65 65 63
81 80 82 84 90 90 86 88 88 89 92 96 92 93 94 96 99 97 98 98 96 96 96 95 94 92 90 88 88 87 82 79 78 77 75 71 68 65
86 85 83 84 84 82 82 85 89 96 93 94 97 99 99 100 98 99 100 98 98 94 94 93 92 91 90 89 88 86 82 78 74 73 73 76 73 67
83 81 85 85 90 93 96 96 97 97 97 97 99 100 100 100 100 100 98 100 99 96 98 97 96 96 95 93 90 87 85 79 75 73 72 70 69 68
90 85 87 97 97 97 97 96 96 97 97 97 98 99 100 99 100 99 98 98 98 100 98 100 97 97 96 90 87 86 82 78 77 73 71 69 68 68
94 97 96 94 97 96 96 95 95 96 96 94 98 92 100 100 99 100 97 88 88 98 96 98 98 98 95 85 86 86 86 82 77 75 73 66 64 67
100 98 98 97 97 97 97 96 95 94 96 93 95 87 87 90 90 89 92 95 99 99 93 96 98 98 96 95 89 88 84 80 77 77 72 65 65 65
100 100 100 100 97 97 100 100 100 100 95 90 89 90 85 86 86 97 100 97 98 99 100 94 99 98 99 100 93 88 89 84 86 82 70 67 65 64
100 100 97 99 98 96 98 100 100 100 100 100 100 98 96 94 89 87 93 92 95 98 100 94 97 94 96 100 98 94 89 93 92 79 70 66 66 46
96 98 97 98 98 98 97 99 100 99 99 99 100 100 100 100 100 100 100 95 92 98 100 93 93 96 87 96 95 96 93 93 91 85 68 62 60 52
100 100 100 100 100 98 98 98 99 98 99 99 99 99 100 100 100 100 100 100 100 100 100 90 93 93 90 95 96 96 95 93 91 88 84 70 60 64
99 100 100 100 98 98 98 99 98 100 100 100 100 100 100 99 100 100 100 100 100 100 100 99 97 99 91 92 94 93 95 92 88 91 91 80 75 72
97 97 99 100 98 98 99 99 100 100 100 99 98 98 97 98 97 93 94 93 92 97 100 99 99 94 97 89 83 90 86 89 89 86 82 80 76 76
94 92 89 89 94 97 98 98 98 98 98 99 97 96 96 95 96 96 91 90 89 93 96 97 97 89 79 84 85 82 85 83 79 76 72 84 84 75
83 94 100 99 94 94 97 98 98 98 98 95 95 92 95 95 95 97 94 90 91 91 90 92 93 82 73 73 73 84 80 78 77 73 63 71 78 75
84 90 99 100 90 84 90 91 94 99 99 97 96 96 94 93 92 90 92 90 92 88 86 75 72 71 73 85 75 69 78 75 78 76 62 62 68 68
63 73 82 81 79 82 82 84 89 92 91 90 97 99 100 95 95 94 93 94 89 88 77 65 61 60 71 85 87 78 76 76 77 72 66 63 81 76
64 64 70 65 65 71 92 95 100 100 100 100 97 96 100 88 93 92 92 94 89 77 77 82 78 76 69 72 89 82 73 73 67 64 62 70 68 63
69 66 65 72 74 74 90 100 96 98 97 96 100 100 100 98 95 94 94 92 89 89 84 67 60 51 50 55 73 85 74 70 76 86 82 71 71 85
84 72 78 81 84 86 74 85 82 85 81 81 83 86 100 93 85 81 80 74 70 69 64 58 49 49 50 57 66 70 81 83 75 82 77 60 58 60